Flag Weather past 2 weeks in Sheffield, England, United Kingdom

Now
50 °F

Light rain. Passing clouds.


Feels Like: 46 °F
Forecast: 42 / 50 °F
Wind: 9 mph from East

Location: Manchester Airport

Current Time: Nov 29, 2014 at 1:52:04 AM

Latest Report: Nov 29, 2014 at 1:20 AM


Visibility: 4 mi

Pressure: 29.80 "Hg

Humidity: 94%

Dew point: 48 °F

Location of SheffieldLocation

Historic Weather in Sheffield — Graph

°F

Sheffield temperature yesterday

Maximum temperature yesterday: 52 °F (at 11:50 AM)
Minimum temperature yesterday: 45 °F (at 1:20 AM)
Average temperature yesterday: 49 °F

Past Weeks' High & Low Weather Summary

 TemperatureHumidityPressure
High57 °F (Nov 22, 12:50 PM)100% (Nov 14, 9:50 AM)30.33 "Hg (Nov 14, 9:50 AM)
Low32 °F (Nov 25, 6:20 AM)72% (Nov 14, 2:20 PM)29.33 "Hg (Nov 14, 5:50 AM)
Average46 °F93%29.86 "Hg
* Reported Nov 14 12:20 AM — Nov 29 12:50 AM, Sheffield, Weather by CustomWeather, © 2014

Note: Actual official high and low records may vary slightly from our data, if they occured in-between our weather recording intervals... More about our weather records

Advertising

Sheffield weather history for previous 24 hours

 ConditionsComfort  
Time TempWeatherWind HumidityBarometerVisibility
12:50 AM
Nov 29
50 °FClear.10 mph94%29.77 "HgN/A
12:20 AM50 °FClear.9 mph94%29.77 "Hg4 mi
11:50 PM
Nov 28
50 °FPassing clouds.12 mph94%29.77 "Hg4 mi
11:20 PM50 °FPassing clouds.8 mph88%29.80 "Hg4 mi
10:50 PM50 °FOvercast.7 mph88%29.80 "Hg6 mi
10:20 PM50 °FPassing clouds.13 mph88%29.77 "Hg6 mi
9:50 PM50 °FOvercast.14 mph88%29.77 "Hg4 mi
9:20 PM50 °FMostly cloudy.9 mph88%29.77 "Hg6 mi
8:50 PM50 °FMostly cloudy.9 mph88%29.77 "Hg5 mi
8:20 PM50 °FPassing clouds.15 mph88%29.74 "HgN/A
7:50 PM50 °FPassing clouds.10 mph88%29.77 "HgN/A
7:20 PM50 °FPassing clouds.14 mph94%29.77 "HgN/A
6:50 PM50 °FPassing clouds.13 mph94%29.74 "HgN/A
6:20 PM50 °FPassing clouds.13 mph94%29.74 "HgN/A
5:50 PM52 °FPassing clouds.10 mph88%29.74 "HgN/A
5:20 PM52 °FPassing clouds.12 mph88%29.71 "Hg6 mi
4:50 PM52 °FPassing clouds.10 mph94%29.71 "Hg6 mi
4:20 PM52 °FPartly cloudy.14 mph94%29.71 "Hg5 mi
3:50 PM52 °FPartly sunny.10 mph94%29.71 "Hg6 mi
3:20 PM52 °FBroken clouds.8 mph88%29.68 "HgN/A
2:50 PM52 °FScattered clouds.12 mph88%29.68 "HgN/A
2:20 PM52 °FBroken clouds.8 mph88%29.68 "HgN/A
1:50 PM52 °FBroken clouds.9 mph88%29.68 "HgN/A
1:20 PM52 °FBroken clouds.8 mph88%29.68 "HgN/A
12:50 PM52 °FBroken clouds.8 mph88%29.68 "HgN/A
12:20 PM52 °FBroken clouds.9 mph88%29.68 "HgN/A
11:50 AM52 °FMore clouds than sun.10 mph94%29.68 "Hg4 mi
11:20 AM50 °FBroken clouds.9 mph100%29.68 "Hg5 mi
10:50 AM50 °FFog.8 mph100%29.68 "Hg3 mi
10:20 AM50 °FBroken clouds.10 mph94%29.68 "Hg4 mi
9:50 AM50 °FBroken clouds.10 mph94%29.68 "Hg4 mi
9:20 AM50 °FPartly sunny.10 mph94%29.65 "Hg4 mi
8:50 AM50 °FBroken clouds.7 mph94%29.65 "Hg4 mi
8:20 AM48 °FBroken clouds.6 mph100%29.65 "Hg4 mi
7:50 AM48 °FPassing clouds.7 mph100%29.65 "Hg4 mi
7:20 AM48 °FPassing clouds.6 mph100%29.65 "Hg4 mi
6:50 AM48 °FPartly cloudy.5 mph100%29.62 "Hg4 mi
6:20 AM48 °FPassing clouds.7 mph100%29.62 "Hg4 mi
5:50 AM48 °FPartly cloudy.6 mph94%29.62 "Hg6 mi
5:20 AM46 °FPassing clouds.7 mph100%29.62 "HgN/A
4:50 AM45 °FPartly cloudy.3 mph100%29.62 "HgN/A
4:20 AM46 °FPassing clouds.7 mph93%29.62 "HgN/A
3:20 AM45 °FPassing clouds.6 mph100%29.62 "HgN/A
2:50 AM46 °FPassing clouds.10 mph100%29.62 "HgN/A
2:20 AM46 °FPassing clouds.8 mph100%29.62 "Hg4 mi
1:50 AM46 °FPassing clouds.9 mph100%29.62 "Hg5 mi
1:20 AM45 °FPassing clouds.9 mph100%29.59 "Hg4 mi
Weather by CustomWeather, © 2014

See weather overviewHow to use our weather pages